• In Deutschland
  • Länderverzeichnis
  • Für 7 Tage
  • Wassertemperatur
  • Satellitenkarten
  • Wetterkarte
  • Widgets
  • user-avatar
    Anmelden

    Stündliche Wetter Tschachansur

    Heute, 27 Mai, Sonntag

    Zeit Temperatur Niederschläge Wind Luftdruck Luftfeuchtigkeit
    00:00 +35°C° 0 mm 2 m/S 714 mmHg 8%
    01:00 +35°C° 0 mm 2 m/S 714 mmHg 9%
    02:00 +34°C° 0 mm 2 m/S 714 mmHg 8%
    03:00 +34°C° 0 mm 2 m/S 714 mmHg 8%
    04:00 +33°C° 0 mm 3 m/S 713 mmHg 8%
    05:00 +34°C° 0 mm 3 m/S 714 mmHg 8%
    06:00 +35°C° 0 mm 3 m/S 715 mmHg 7%
    07:00 +36°C° 0 mm 3 m/S 715 mmHg 7%
    08:00 +38°C° 0 mm 3 m/S 715 mmHg 6%
    09:00 +41°C° 0 mm 4 m/S 716 mmHg 6%
    10:00 +43°C° 0 mm 4 m/S 716 mmHg 5%
    11:00 +43°C° 0 mm 4 m/S 716 mmHg 5%
    12:00 +44°C° 0 mm 4 m/S 716 mmHg 5%
    13:00 +46°C° 0 mm 5 m/S 716 mmHg 5%
    14:00 +46°C° 0 mm 5 m/S 715 mmHg 5%
    15:00 +46°C° 0 mm 5 m/S 715 mmHg 5%
    16:00 +47°C° 0 mm 6 m/S 714 mmHg 5%
    17:00 +46°C° 0 mm 5 m/S 714 mmHg 6%
    18:00 +45°C° 0 mm 5 m/S 714 mmHg 6%
    19:00 +43°C° 0 mm 4 m/S 714 mmHg 7%
    20:00 +42°C° 0 mm 5 m/S 714 mmHg 7%
    21:00 +41°C° 0 mm 6 m/S 715 mmHg 8%
    22:00 +40°C° 0 mm 7 m/S 715 mmHg 9%
    23:00 +39°C° 0 mm 7 m/S 715 mmHg 10%

    Morgen, 28 Mai, Montag

    Zeit Temperatur Niederschläge Wind Luftdruck Luftfeuchtigkeit
    00:00 +38°C° 0 mm 8 m/S 715 mmHg 12%
    01:00 +37°C° 0 mm 9 m/S 715 mmHg 14%
    02:00 +36°C° 0 mm 10 m/S 715 mmHg 17%
    03:00 +33°C° 0 mm 10 m/S 715 mmHg 21%
    04:00 +32°C° 0 mm 11 m/S 715 mmHg 25%
    05:00 +32°C° 0 mm 11 m/S 716 mmHg 25%
    06:00 +33°C° 0 mm 12 m/S 716 mmHg 25%
    07:00 +33°C° 0 mm 12 m/S 717 mmHg 25%
    08:00 +34°C° 0 mm 12 m/S 717 mmHg 22%
    09:00 +37°C° 0 mm 12 m/S 717 mmHg 19%
    10:00 +39°C° 0 mm 12 m/S 717 mmHg 16%
    11:00 +41°C° 0 mm 12 m/S 717 mmHg 14%
    12:00 +42°C° 0 mm 12 m/S 716 mmHg 13%
    13:00 +43°C° 0 mm 11 m/S 716 mmHg 12%
    14:00 +43°C° 0 mm 12 m/S 716 mmHg 12%
    15:00 +42°C° 0 mm 12 m/S 715 mmHg 12%
    16:00 +42°C° 0 mm 13 m/S 714 mmHg 12%
    17:00 +41°C° 0 mm 13 m/S 714 mmHg 13%
    18:00 +38°C° 0 mm 12 m/S 714 mmHg 13%
    19:00 +37°C° 0 mm 12 m/S 714 mmHg 14%
    20:00 +36°C° 0 mm 12 m/S 714 mmHg 14%
    21:00 +34°C° 0 mm 13 m/S 714 mmHg 13%
    22:00 +33°C° 0 mm 13 m/S 714 mmHg 13%
    23:00 +32°C° 0 mm 12 m/S 714 mmHg 12%

    übermorgen, 29 Mai, Dienstag

    Zeit Temperatur Niederschläge Wind Luftdruck Luftfeuchtigkeit
    00:00 +31°C° 0 mm 12 m/S 714 mmHg 12%
    01:00 +29°C° 0 mm 12 m/S 713 mmHg 11%
    02:00 +28°C° 0 mm 12 m/S 713 mmHg 11%
    03:00 +28°C° 0 mm 11 m/S 713 mmHg 10%
    04:00 +27°C° 0 mm 11 m/S 713 mmHg 10%
    05:00 +27°C° 0 mm 11 m/S 713 mmHg 10%
    06:00 +28°C° 0 mm 12 m/S 714 mmHg 9%
    07:00 +28°C° 0 mm 12 m/S 714 mmHg 8%
    08:00 +31°C° 0 mm 12 m/S 714 mmHg 7%
    09:00 +33°C° 0 mm 12 m/S 714 mmHg 6%
    10:00 +36°C° 0 mm 12 m/S 714 mmHg 5%
    11:00 +37°C° 0 mm 12 m/S 714 mmHg 4%
    12:00 +39°C° 0 mm 12 m/S 714 mmHg 4%
    13:00 +41°C° 0 mm 12 m/S 713 mmHg 3%
    14:00 +41°C° 0 mm 12 m/S 713 mmHg 4%
    15:00 +42°C° 0 mm 13 m/S 712 mmHg 4%
    16:00 +42°C° 0 mm 13 m/S 712 mmHg 4%
    17:00 +41°C° 0 mm 12 m/S 712 mmHg 5%
    18:00 +38°C° 0 mm 12 m/S 712 mmHg 5%
    19:00 +37°C° 0 mm 11 m/S 712 mmHg 6%
    20:00 +36°C° 0 mm 11 m/S 712 mmHg 6%
    21:00 +34°C° 0 mm 12 m/S 712 mmHg 7%
    22:00 +33°C° 0 mm 12 m/S 713 mmHg 8%
    23:00 +32°C° 0 mm 12 m/S 712 mmHg 8%

    30 Mai, Mittwoch

    Zeit Temperatur Niederschläge Wind Luftdruck Luftfeuchtigkeit
    00:00 +32°C° 0 mm 12 m/S 712 mmHg 8%
    01:00 +31°C° 0 mm 11 m/S 712 mmHg 8%
    02:00 +29°C° 0 mm 11 m/S 712 mmHg 9%
    03:00 +29°C° 0 mm 11 m/S 712 mmHg 9%
    04:00 +28°C° 0 mm 10 m/S 712 mmHg 10%
    05:00 +29°C° 0 mm 11 m/S 712 mmHg 9%
    06:00 +29°C° 0 mm 12 m/S 713 mmHg 9%
    07:00 +31°C° 0 mm 12 m/S 713 mmHg 8%
    08:00 +33°C° 0 mm 12 m/S 714 mmHg 7%
    09:00 +36°C° 0 mm 11 m/S 714 mmHg 6%
    10:00 +38°C° 0 mm 11 m/S 714 mmHg 5%
    11:00 +39°C° 0 mm 10 m/S 714 mmHg 5%
    12:00 +42°C° 0 mm 10 m/S 714 mmHg 5%
    13:00 +43°C° 0 mm 10 m/S 713 mmHg 4%
    14:00 +43°C° 0 mm 10 m/S 713 mmHg 4%
    15:00 +43°C° 0 mm 11 m/S 713 mmHg 4%
    16:00 +44°C° 0 mm 11 m/S 712 mmHg 4%
    17:00 +42°C° 0 mm 11 m/S 713 mmHg 5%
    18:00 +41°C° 0 mm 12 m/S 713 mmHg 5%
    19:00 +38°C° 0 mm 12 m/S 713 mmHg 6%
    20:00 +37°C° 0 mm 12 m/S 713 mmHg 6%
    21:00 +36°C° 0 mm 12 m/S 714 mmHg 7%
    22:00 +34°C° 0 mm 12 m/S 714 mmHg 7%
    23:00 +33°C° 0 mm 12 m/S 714 mmHg 7%

    31 Mai, Donnerstag

    Zeit Temperatur Niederschläge Wind Luftdruck Luftfeuchtigkeit
    00:00 +33°C° 0 mm 12 m/S 713 mmHg 8%
    01:00 +32°C° 0 mm 12 m/S 713 mmHg 8%
    02:00 +31°C° 0 mm 12 m/S 713 mmHg 8%
    03:00 +29°C° 0 mm 12 m/S 713 mmHg 8%
    04:00 +29°C° 0 mm 12 m/S 713 mmHg 8%
    05:00 +29°C° 0 mm 12 m/S 713 mmHg 8%
    06:00 +31°C° 0 mm 12 m/S 714 mmHg 8%
    07:00 +31°C° 0 mm 13 m/S 714 mmHg 8%
    08:00 +33°C° 0 mm 13 m/S 715 mmHg 8%
    09:00 +36°C° 0 mm 13 m/S 715 mmHg 7%
    10:00 +38°C° 0 mm 13 m/S 715 mmHg 7%
    11:00 +39°C° 0 mm 12 m/S 714 mmHg 6%
    12:00 +41°C° 0 mm 12 m/S 714 mmHg 6%
    13:00 +43°C° 0 mm 12 m/S 714 mmHg 6%
    14:00 +43°C° 0 mm 12 m/S 713 mmHg 6%
    15:00 +43°C° 0 mm 12 m/S 713 mmHg 6%
    16:00 +43°C° 0 mm 12 m/S 712 mmHg 6%
    17:00 +42°C° 0 mm 11 m/S 713 mmHg 7%
    18:00 +41°C° 0 mm 11 m/S 713 mmHg 8%
    19:00 +39°C° 0 mm 10 m/S 713 mmHg 9%
    20:00 +38°C° 0 mm 10 m/S 713 mmHg 10%
    21:00 +37°C° 0 mm 10 m/S 713 mmHg 10%
    22:00 +36°C° 0 mm 10 m/S 714 mmHg 11%
    23:00 +34°C° 0 mm 10 m/S 713 mmHg 12%

    1 Juni, Freitag

    Zeit Temperatur Niederschläge Wind Luftdruck Luftfeuchtigkeit
    00:00 +34°C° 0 mm 10 m/S 713 mmHg 12%
    01:00 +33°C° 0 mm 10 m/S 712 mmHg 13%
    02:00 +33°C° 0 mm 9 m/S 712 mmHg 13%
    03:00 +32°C° 0 mm 9 m/S 712 mmHg 13%
    04:00 +32°C° 0 mm 9 m/S 712 mmHg 14%
    05:00 +32°C° 0 mm 9 m/S 713 mmHg 13%
    06:00 +33°C° 0 mm 10 m/S 713 mmHg 12%
    07:00 +34°C° 0 mm 10 m/S 714 mmHg 12%
    08:00 +37°C° 0 mm 10 m/S 714 mmHg 10%
    09:00 +39°C° 0 mm 9 m/S 714 mmHg 9%
    10:00 +42°C° 0 mm 9 m/S 715 mmHg 7%
    11:00 +44°C° 0 mm 8 m/S 714 mmHg 7%
    12:00 +45°C° 0 mm 8 m/S 714 mmHg 6%
    13:00 +47°C° 0 mm 7 m/S 713 mmHg 5%
    14:00 +47°C° 0 mm 7 m/S 713 mmHg 5%
    15:00 +47°C° 0 mm 7 m/S 713 mmHg 5%
    16:00 +49°C° 0 mm 7 m/S 712 mmHg 4%
    17:00 +46°C° 0 mm 7 m/S 712 mmHg 5%
    18:00 +45°C° 0 mm 6 m/S 712 mmHg 5%
    19:00 +44°C° 0 mm 6 m/S 712 mmHg 6%
    20:00 +42°C° 0 mm 6 m/S 712 mmHg 7%
    21:00 +41°C° 0 mm 6 m/S 712 mmHg 7%
    22:00 +40°C° 0 mm 7 m/S 712 mmHg 8%
    23:00 +39°C° 0 mm 6 m/S 712 mmHg 9%
    Mehr zeigen